Location: *
(33.8649°S, 62.1526°E)
Time: 03:41:23
(UTC+00:00)

Aureole 1 Rocket - Pass Details

Date: 17 January 2021
Orbit: 378 x 1376 km, 73.9° (Epoch: 27 February)

Event Time Altitude Azimuth Distance (km) Brightness Sun altitude
Exits shadow 23:19:09 26° 329° (NNW) 1,944 5.0 -18.1°
Maximum altitude 23:23:06 67° 253° (WSW) 1,037 4.0 -17.5°
Drops below altitude 10° 23:28:34 10° 170° (S) 2,369 6.8 -16.6°
Sets 23:30:42 0° 167° (SSE) 3,162 7.6 -16.3°
